Content
SEND FEEDBACK

Daily
Averages
Monthly
Summary
United Kingdom

WINCHESTER, ENGLAND


Home > Europe > United Kingdom > England
Elevation: 297 feet     Latitude: 51 09N     Longitude: 001 34W

WEATHER
 
SELECT A DAY
Number of Records: 59,756;   Date Range: 10/20/98 - 9/1/14
 
SHARE

PRINT THIS DATA

[ ← Previous Day ]
WEATHER ALMANAC - AUGUST 1, 2013
[ Next Day → ]
[ °C ]   °F
Weather ElementAverageHighLow
Temperature72.4 °F86 °F (3:50 pm)60.8 °F (2:50 am)
Dewpoint61.1 °F64.4 °F (12:50 pm)57.2 °F (8:50 pm)
Humidity69.1 %100 % (3:50 am)37 % (6:50 pm)
Barometer29.79 in29.95 in (12:50 am)29.68 in (5:50 pm)
Wind Speed9.4 mph16.1 mph (4:50 pm)
Weather ElementAverage
Visibility7.2 mi
Wind DirectionSSE (151.6 °)

Weather ElementTotal
Precipitation---
Cooling Degree Days8.4 (Base 65)
Growing Degree Days23.4 (Base 50)
Averaged from 32 records on August 1, 2013
WEATHER CONDITIONS BREAKOUT
WIND DIRECTION BREAKOUT
WEATHER BY HOUR - AUGUST 1, 2013
[ °C ]   °F
Local TimeTemperatureDewpointHumidityBarometerVisibilityWind DirectionWind SpeedGust SpeedPrecipitationEventsConditions
12:50 AM62.6 °F60.8 °F94 %29.95 in6.2 miSSE (160°)8.1 mphMostly Cloudy
1:50 AM62.6 °F60.8 °F94 %29.92 in6.2 miSouth (180°)6.9 mphOvercast
2:50 AM60.8 °F59.0 °F94 %29.92 in6.2 miSSE (150°)4.6 mphPartly Cloudy
3:50 AM61.0 °F60.0 °F95 %29.90 in3.0 miEast (90°)3.5 mphMostly Cloudy
3:50 AM60.8 °F60.8 °F100 %29.89 in3.1 miEast (90°)3.5 mphScattered Clouds
4:50 AM60.8 °F59.0 °F94 %29.86 in0.1 miEast (100°)4.6 mphOvercast
5:50 AM60.8 °F59.0 °F94 %29.86 in0.1 miENE (70°)4.6 mph
6:50 AM60.8 °F60.8 °F100 %29.86 in0.4 miENE (70°)5.8 mphFogFog
6:50 AM61.0 °F60.0 °F95 %29.86 in0.0 miENE (70°)5.8 mphFogPartial Fog
7:16 AM62.6 °F60.8 °F94 %29.86 in2.5 miEast (90°)6.9 mphPartly Cloudy
7:50 AM66.2 °F60.8 °F83 %29.83 in6.2 miEast (100°)8.1 mphPartly Cloudy
8:50 AM71.6 °F62.6 °F73 %29.83 inSE (140°)9.2 mphClear
9:50 AM76.0 °F62.0 °F54 %29.80 in16.0 miSE (140°)12.7 mphPartly Cloudy
9:50 AM75.2 °F62.6 °F65 %29.80 inSE (140°)12.7 mphClear
10:50 AM78.8 °F62.6 °F57 %29.77 inSouth (170°)13.8 mphClear
11:50 AM80.6 °F62.6 °F54 %29.77 inSSE (160°)15.0 mphClear
12:50 PM82.4 °F64.4 °F54 %29.74 inSSE (160°)15.0 mphClear
12:50 PM82.0 °F64.0 °F44 %29.75 in16.0 miSSE (160°)15.0 mphPartly Cloudy
1:50 PM82.4 °F62.6 °F51 %29.74 inSSE (160°)15.0 mphClear
2:50 PM82.4 °F62.6 °F51 %29.74 inSSE (150°)15.0 mphClear
3:50 PM85.0 °F63.0 °F38 %29.72 in19.0 miSouth (170°)15.0 mphPartly Cloudy
3:50 PM86.0 °F62.6 °F45 %29.71 inSouth (170°)15.0 mphClear
4:50 PM86.0 °F60.8 °F43 %29.71 inSouth (170°)16.1 mphClear
5:50 PM84.2 °F62.6 °F48 %29.68 inSouth (170°)11.5 mphClear
6:50 PM82.4 °F60.8 °F48 %29.68 inSSW (200°)10.4 mphClear
6:50 PM83.0 °F61.0 °F37 %29.68 in19.0 miSSW (200°)10.4 mph
7:50 PM78.8 °F62.6 °F57 %29.71 inSSW (200°)10.4 mphClear
8:50 PM75.2 °F57.2 °F53 %29.71 inSSW (200°)6.9 mphClear
9:50 PM70.0 °F61.0 °F65 %29.74 in12.0 miSSW (210°)4.6 mphScattered Clouds
9:50 PM69.8 °F60.8 °F73 %29.74 inSSW (210°)4.6 mphClear
10:50 PM64.4 °F57.2 °F77 %29.77 inSSW (210°)5.8 mphClear
11:50 PM60.8 °F57.2 °F88 %29.77 in6.2 miSouth (190°)4.6 mph
Hourly data recorded from EGVP, located miles away from Winchester, England







STORIES FROM OUR PARTNERS